Location: ??????
(41.3794°N, 22.5014°E)
Time: 07:14:09
(UTC+00:00)

X-37B - Pass Details

Date: 30 November 2020
Orbit: 384 x 390 km, 45.0° (Epoch: 02 January)

Event Time Altitude Azimuth Distance (km) Brightness Sun altitude
Rises 16:47:38 0° 264° (W) 2,260 6.1 -19.4°
Reaches altitude 10° 16:49:44 10° 269° (W) 1,409 4.6 -19.8°
Enters shadow 16:52:35 50° 328° (NNW) 498 1.1 -20.3°
